Probability
0 0 0 0 0 0 0 0 0 0 0 0 0 0 0 0 0 0 0 0 0 0 1 3 3 3 4 5 5 4 3 3 2 1 0 0 0 0 0 0 0 0 0 0
0 0 0 0 0 0 0 0 0 0 0 0 0 0 0 0 0 0 0 0 0 1 2 3 3 3 3 4 4 4 3 3 2 1 0 0 0 0 0 0 0 0 0 0
0 0 0 0 0 0 0 0 0 0 0 0 0 0 0 0 0 0 1 1 1 1 3 3 3 3 3 3 3 4 4 4 3 2 1 0 0 0 0 0 0 0 0 0
0 0 0 0 0 0 0 0 0 0 0 0 0 0 0 0 0 0 1 2 2 3 3 3 3 3 3 3 3 3 3 4 3 3 2 1 1 1 1 1 0 0 0 0
0 0 0 0 0 0 0 0 0 0 0 0 0 0 0 0 0 0 1 1 3 3 3 3 3 3 3 3 3 3 3 3 3 3 3 3 2 2 2 1 0 0 0 0
0 0 0 0 0 0 0 0 0 0 0 0 0 0 0 0 0 0 0 1 2 3 3 3 3 3 3 3 3 3 3 3 3 3 3 3 3 3 3 1 0 0 0 0
0 0 0 0 0 0 0 0 0 0 0 0 0 0 0 0 0 0 0 1 2 3 3 3 3 3 3 3 3 2 2 2 2 2 2 2 2 2 2 1 0 0 0 0
0 0 0 0 0 0 0 0 0 0 0 0 0 0 0 0 0 0 0 0 1 2 2 1 1 2 2 2 1 1 1 1 1 1 1 1 1 1 1 0 0 0 0 0
0 0 0 0 0 0 0 0 0 0 0 0 0 0 0 0 0 0 0 0 0 1 1 0 0 1 1 1 0 0 0 0 0 0 0 0 0 0 0 0 0 0 0 0
0 0 0 0 0 0 0 0 0 0 0 0 0 0 0 0 0 0 0 0 0 0 0 0 0 0 0 0 0 0 0 0 0 0 0 0 0 0 0 0 0 0 0 0
0 0 0 0 0 0 0 0 0 0 0 0 0 0 0 0 0 0 0 0 0 0 0 0 0 0 0 0 0 0 0 0 0 0 0 0 0 0 0 0 0 0 0 0
0 0 0 0 0 0 0 0 0 0 0 0 0 0 0 0 0 0 0 0 0 0 0 0 0 0 0 0 0 0 0 0 0 0 0 0 1 0 0 0 0 0 0 0
0 0 0 0 0 0 0 0 0 0 0 0 0 0 0 0 0 0 0 0 0 0 0 0 0 0 0 0 0 0 0 0 0 0 0 0 0 0 0 0 0 0 0 0
0 0 0 0 0 0 0 0 0 0 0 0 0 0 0 0 0 0 0 0 0 0 0 0 0 0 0 0 0 0 0 0 0 0 0 0 0 0 0 0 0 0 0 0
0 0 0 0 0 0 0 0 0 0 0 0 0 0 0 0 0 0 0 0 0 0 0 0 0 0 0 0 0 0 0 0 0 0 0 0 0 0 0 0 0 0 0 0
0 0 0 0 0 0 0 0 0 0 0 0 0 0 0 0 0 0 0 0 0 0 0 0 0 0 0 0 0 0 0 0 0 0 0 0 0 0 0 0 0 0 0 0
0 0 0 0 0 0 0 0 0 0 0 0 0 0 0 0 0 0 0 0 0 0 0 0 0 0 0 0 0 0 0 0 0 0 0 0 0 0 0 0 0 0 0 0
0 0 0 0 0 0 0 0 0 0 0 0 0 0 0 0 0 0 0 0 0 0 0 0 0 0 0 0 0 0 0 0 0 0 0 0 0 0 0 0 0 0 0 0
0 0 0 0 0 0 0 0 0 0 0 0 0 0 0 0 0 0 0 0 0 0 0 0 0 0 0 0 0 0 0 0 0 0 0 0 0 0 0 0 0 0 0 0
0 0 0 0 0 0 0 0 0 0 0 0 0 0 0 0 0 0 0 0 0 0 0 0 0 0 0 0 0 0 0 0 0 0 0 0 0 0 0 0 0 0 0 0
0 0 0 0 0 0 0 0 0 0 0 0 0 0 0 0 0 0 0 0 0 0 0 0 0 0 0 0 0 0 0 0 0 0 0 0 0 0 0 0 0 0 0 0
0 0 0 0 0 0 0 0 0 0 0 0 0 0 0 0 0 0 0 0 0 0 0 0 0 0 0 0 0 0 0 0 0 0 0 0 0 0 0 0 0 0 0 0
0 0 0 0 0 0 0 0 0 0 0 0 0 0 0 0 0 0 0 0 0 0 0 0 0 0 0 0 0 0 0 0 0 0 0 0 0 0 0 0 0 0 0 0
0 0 0 0 0 0 0 0 0 0 0 0 0 0 0 0 0 0 0 0 0 0 0 0 0 0 0 0 0 0 0 0 0 0 0 0 0 0 0 0 0 0 0 0
0 0 0 0 0 0 0 0 0 0 0 0 0 0 0 0 0 0 0 0 0 0 0 0 0 0 0 0 0 0 0 0 0 0 0 0 0 0 0 0 0 0 0 0
0 0 0 0 0 0 0 0 0 0 0 0 0 0 0 0 0 0 0 0 0 0 0 0 0 0 0 0 0 0 0 0 0 0 0 0 0 0 0 0 0 0 0 0
0 0 0 0 0 0 0 0 0 0 0 0 0 0 0 0 0 0 0 0 0 0 0 0 0 0 0 0 0 0 0 0 0 0 0 0 0 0 0 0 0 0 0 0
Wind_Speed
5 4 4 6 7 8 10 9 9 7 7 7 5 4 3 2 2 2 2 3 3 3 3 4 4 4 4 4 4 4 5 5 4 4 4 4 4 4 4 4 4 4 4 4
6 5 5 8 9 9 10 10 10 10 9 5 4 3 3 2 2 3 3 3 3 3 3 4 4 5 5 5 4 4 4 4 4 3 4 4 4 4 4 4 4 4 4 4
7 4 6 9 7 8 8 7 8 8 5 3 3 3 2 2 3 3 3 3 4 4 4 4 4 4 5 5 4 5 5 4 4 4 4 4 4 4 4 5 5 5 5 5
6 6 9 0 2 3 5 5 6 6 4 4 4 2 2 2 2 2 2 3 3 4 3 3 3 4 4 4 5 5 4 5 5 5 5 5 5 5 5 5 5 5 5 6
5 7 7 3 3 3 5 5 4 6 4 2 1 2 2 1 2 2 3 3 3 3 3 3 3 4 4 4 4 4 4 5 5 5 5 5 5 6 5 5 5 6 6 6
6 7 7 1 2 1 5 5 1 2 2 2 3 5 1 2 2 3 3 2 2 2 3 3 3 4 4 5 5 5 5 5 5 5 5 6 6 6 5 5 6 5 6 6
9 9 6 2 1 3 6 2 2 1 1 2 3 4 3 2 3 3 3 2 3 3 3 3 4 4 5 5 6 5 5 5 5 6 6 6 5 5 5 5 6 6 6 6
7 9 5 3 2 3 4 4 1 2 2 3 3 3 3 3 3 3 3 3 3 3 3 3 4 5 6 6 5 5 5 5 5 6 5 5 5 5 5 5 5 5 6 6
5 3 3 0 2 4 5 4 4 3 3 3 4 4 4 4 4 4 4 3 3 3 3 4 4 5 6 5 4 5 5 5 5 6 5 5 5 5 5 5 5 5 5 5
7 6 4 3 3 3 4 5 5 4 4 4 5 5 5 4 4 4 4 3 3 4 4 4 4 5 6 5 5 5 6 6 5 5 5 5 4 4 5 5 5 5 5 5
8 6 5 4 4 5 4 4 5 5 5 5 6 6 5 5 5 4 4 4 4 4 5 5 4 5 5 5 5 5 6 5 5 5 5 5 5 4 5 5 4 5 4 4
7 5 6 5 5 5 5 5 5 6 6 6 5 6 6 5 5 4 4 4 4 5 5 5 5 5 5 5 5 6 5 5 4 4 4 4 4 4 3 5 4 4 5 5
7 6 7 7 7 6 6 6 6 6 6 6 6 5 5 5 5 5 5 5 5 5 5 5 5 5 5 5 5 6 6 5 4 4 4 4 4 5 4 4 5 6 6 6
6 6 7 6 6 6 6 6 6 5 6 6 5 5 5 5 5 5 6 6 5 5 5 6 6 5 4 5 5 6 6 5 4 4 4 4 5 5 5 4 4 4 5 6
6 6 7 6 6 5 5 5 5 5 6 6 5 5 5 5 6 6 5 5 5 5 6 5 6 5 5 5 6 6 5 4 4 4 4 4 4 4 4 5 5 4 4 4
6 6 5 6 5 5 5 5 5 6 6 6 6 6 6 6 6 5 5 5 5 6 6 5 5 5 4 5 5 5 5 5 5 4 4 4 4 5 4 5 5 5 5 4
5 5 5 5 6 6 6 6 6 6 6 6 6 6 6 5 5 5 5 5 5 6 5 5 5 4 4 5 5 4 4 4 6 5 5 5 4 5 5 5 5 5 5 4
6 6 6 6 6 6 6 6 6 6 6 6 6 6 5 5 5 5 5 5 5 5 5 5 4 4 5 5 4 4 4 4 4 4 5 5 5 5 5 5 5 6 5 4
5 5 5 5 5 5 6 6 6 6 5 5 5 6 6 6 5 5 5 5 5 5 5 4 4 4 4 5 4 4 4 4 4 4 4 5 5 5 5 5 6 6 5 5
4 4 4 5 5 5 5 5 5 5 5 5 5 5 5 5 5 5 5 5 4 4 5 4 4 4 4 4 4 3 4 4 4 4 4 4 5 5 5 5 6 6 5 5
3 3 3 4 4 4 4 4 4 5 5 4 5 5 5 5 5 5 4 4 5 5 4 4 3 3 3 3 4 4 4 4 4 4 4 5 5 5 5 5 5 5 5 5
3 3 3 3 3 3 4 4 4 4 4 4 4 5 5 5 5 5 4 4 5 5 4 3 3 3 3 3 3 4 4 4 4 4 5 5 5 5 5 6 6 5 5 5
3 3 3 4 4 4 4 4 4 4 4 4 4 5 5 5 4 4 5 4 4 5 4 3 3 4 4 3 3 3 4 4 5 5 5 5 5 5 5 6 6 5 5 5
3 4 4 4 4 4 4 5 4 4 4 4 4 5 5 4 4 4 4 5 6 6 4 3 4 4 4 3 3 4 4 4 4 5 5 5 5 5 5 5 5 5 5 6
4 4 4 4 4 4 4 5 5 4 4 4 4 5 4 4 4 4 4 4 5 5 4 3 3 4 3 3 3 3 4 4 4 4 5 5 5 5 5 5 5 5 5 5
3 3 3 4 4 4 4 4 4 4 4 4 4 4 4 4 4 4 4 4 5 5 4 3 3 3 3 3 3 3 3 3 3 4 4 4 5 5 5 5 6 5 5 5
4 3 3 3 3 4 4 4 4 4 4 4 5 4 4 4 4 4 4 4 3 3 3 3 3 3 3 3 3 3 3 3 3 3 4 4 4 5 5 6 5 5 5 5
Wind_Direction
275 289 272 266 253 233 237 253 266 273 276 284 296 298 293 250 220 211 198 186 185 191 193 193 195 194 191 190 187 187 187 194 202 202 202 206 203 204 205 206 212 209 211 210
253 252 257 261 258 245 242 249 254 264 272 289 298 283 259 226 212 217 209 202 197 196 194 200 200 198 194 195 194 191 194 197 197 199 197 205 205 203 204 204 214 215 220 221
259 252 261 254 250 239 231 234 248 258 273 288 283 282 268 248 229 231 233 226 216 207 202 207 207 204 201 199 192 196 201 201 196 198 197 204 201 201 207 209 210 216 222 224
266 255 251 338 76 247 243 251 250 262 285 293 298 307 287 263 251 254 258 249 237 226 210 209 205 200 200 198 198 203 208 209 202 203 202 204 206 208 214 218 212 219 225 227
250 259 265 251 220 228 245 253 250 255 266 279 291 248 209 208 277 284 279 272 253 239 220 206 202 197 196 199 202 208 217 220 211 208 208 210 215 218 221 222 222 224 227 232
240 256 264 289 106 239 256 247 98 267 266 257 238 258 298 12 320 304 298 282 263 238 224 217 209 201 204 209 213 220 225 231 224 216 213 216 224 226 221 223 228 230 232 236
245 253 263 17 99 206 239 334 65 321 291 246 259 313 359 339 315 304 291 281 264 241 230 226 216 208 214 219 225 229 230 235 230 221 221 223 229 230 228 228 232 235 236 237
238 246 250 87 173 235 322 4 325 307 297 283 298 319 316 303 299 295 286 273 259 245 240 232 221 218 227 233 236 231 226 229 229 225 222 222 226 234 234 229 230 235 237 236
243 271 20 69 277 318 325 307 309 306 307 298 293 294 295 292 293 293 287 274 259 249 246 237 227 226 233 238 238 232 225 231 232 227 222 225 225 226 228 227 231 235 237 238
249 251 261 258 270 291 304 307 315 314 308 293 287 287 286 287 288 288 282 275 263 252 248 245 237 235 239 237 233 231 229 232 230 224 223 224 227 228 226 226 228 231 235 239
251 261 264 250 266 287 295 298 303 305 301 295 288 283 280 280 281 283 280 275 266 261 259 257 247 240 242 233 226 232 234 236 233 225 226 227 226 234 233 234 240 241 240 242
259 265 271 276 288 293 289 288 288 293 297 296 292 287 283 280 280 279 275 272 268 265 260 256 247 239 235 227 224 230 233 235 231 226 222 226 231 232 228 237 237 241 256 260
281 295 287 288 289 289 288 292 292 292 291 291 293 290 284 281 277 274 271 265 262 262 262 258 252 245 239 232 228 231 235 235 227 229 228 228 231 234 235 227 224 232 238 246
273 276 275 277 285 293 296 298 299 299 297 293 293 290 285 280 277 273 271 269 266 265 262 257 252 247 243 234 230 232 237 235 229 227 230 231 234 238 241 243 242 241 230 231
267 269 275 284 284 292 300 300 299 300 301 299 295 288 282 278 277 276 277 276 271 267 264 260 254 251 244 232 230 234 236 233 228 231 231 233 235 239 243 246 249 251 252 236
272 271 267 272 281 289 293 294 295 298 301 300 297 292 287 282 282 281 278 274 268 268 269 264 259 257 246 234 228 233 234 228 229 233 234 234 235 237 241 246 251 254 254 256
260 267 271 276 284 287 287 287 290 294 298 298 298 297 292 286 283 282 281 277 272 271 271 267 266 263 248 240 232 230 230 220 218 230 235 237 238 241 242 245 250 254 256 254
266 271 275 279 283 286 290 293 294 295 295 297 298 295 287 282 281 283 285 283 278 278 278 276 272 262 249 239 234 232 229 228 228 233 235 236 240 243 244 247 250 254 258 243
271 276 282 284 286 287 291 294 296 298 302 301 296 291 289 287 288 288 288 283 280 282 289 289 279 259 245 236 235 228 229 232 235 236 237 236 238 242 243 247 252 255 256 252
288 286 286 291 294 293 294 298 300 302 304 302 298 296 297 298 298 295 291 287 287 291 293 292 275 259 248 238 234 231 226 229 235 240 238 239 241 245 246 247 250 253 253 252
308 299 299 299 301 301 301 300 300 302 305 304 299 298 301 305 306 302 298 295 302 306 296 280 266 258 248 247 235 232 232 235 239 241 242 242 244 248 251 252 252 253 253 253
317 313 311 311 311 310 310 307 306 306 309 309 306 305 307 307 308 305 297 293 305 317 301 281 271 271 274 257 240 241 240 242 243 243 245 246 247 249 251 254 255 255 254 252
314 315 320 322 317 314 314 311 309 308 307 305 304 304 303 303 302 300 299 307 308 311 303 295 301 291 277 254 252 251 248 247 248 248 247 247 248 250 253 255 256 257 256 255
318 322 324 321 317 314 312 316 314 308 304 302 302 303 303 302 303 302 299 307 312 308 296 301 301 293 277 265 257 252 249 249 250 252 253 252 251 251 251 253 256 257 256 258
310 313 315 314 311 310 310 312 311 307 303 303 303 304 302 298 297 302 303 304 312 309 299 300 293 287 277 274 266 262 260 257 259 261 257 256 255 253 254 254 254 256 258 257
301 302 303 304 308 307 303 299 298 300 301 301 301 301 302 303 301 299 300 300 301 302 299 296 285 274 278 284 280 276 273 268 262 259 259 259 255 254 253 253 254 254 256 257
298 299 302 307 309 306 300 296 295 295 295 295 298 302 303 304 302 300 300 298 295 291 290 289 285 281 286 290 287 285 281 277 272 269 266 264 260 256 254 254 254 254 256 257